Weather in Sidima

Russia / Khabarovsk Krai     48°07′18″N   136°02′27″E
temp.,
°C
wind,
m/s
gust,
m/s
humid.,
%
clouds,
%
prec.,
mm/h
press.,
hPa
HPBL,
m
27 february, sat
sat2701:00−20s239345 0.0 103536
04:00−21sse239124 0.0 103541
07:00−21sse23910 0.0 103642
10:00−15s24840 0.0 1035179
13:00−9s247556 0.0 1033475
16:00−7s247766 0.0 1029536
19:00−10sse2289100 0.0 102644
22:00−8sse2584100 0.0 1024119
28 february, sun
sun2801:00−5s41773100 0.0 1021699
04:00−5ssw61582100 0.1 1019804
07:00−5ssw51392100 1.5 1018841
10:00−3sw41093100 2.6 1017756
13:00−3wsw51083100 0.9 1018790
16:00−7wsw51079100 0.9 1019733
19:00−11sw4985100 0.0 1022639
22:00−13sw3889100 0.0 1025337
1 march, mon
mon101:00−16sw3792100 0.0 1026229
04:00−18sw3795100 0.0 1027238
07:00−21sw499449 0.0 1030260
10:00−19sw5108525 0.0 1031509
13:00−15wsw58720 0.0 1031920
16:00−15wsw57716 0.0 10311187
19:00−19sw388524 0.0 1033202
22:00−21ssw368412 0.0 1034112
2 march, tue
tue201:00−21s368720 0.0 1033108
04:00−22s228950 0.0 103342
07:00−22s2293100 0.0 103469
10:00−18sw2487100 0.1 1032377
13:00−15w247142 0.0 1031931
16:00−14wnw347121 0.0 10291079
19:00−21nnw019117 0.0 103120
22:00−22s22909 0.0 103320
3 march, wed
wed301:00−23s22870 0.0 103220
04:00−23s22850 0.0 103122
07:00−23sse23850 0.0 103135
10:00−17sse23770 0.0 1030199
13:00−10sse23650 0.0 1026554
16:00−9s246933 0.0 1022568
19:00−11sse2285100 0.0 102131
22:00−10s21188100 0.0 1020593